Tracking 26218 objects as of 26-Sep-2022
HD Live streaming from Space Station
objects crossing your sky now

SPACEBEE-152

Track SPACEBEE-152 now!
10-day predictions


NORAD ID: 52414
Int'l Code: 2022-047W
Perigee: 522.9 km
Apogee: 536.0 km
Inclination: 97.4 °
Period: 95.1 minutes
Semi major axis: 6900 km
RCS: Unknown
Launch date: May 2, 2022
Source: United States (US)
Launch site: Rocket Lab Launch Complex (RLLC)
aabbcc
Your satellite tracking list
Your tracking list is empty




NASA's NSSDC Master Catalog

Two Line Element Set (TLE):
1 52414U 22047W   22268.81931845  .00008960  00000-0  48861-3 0  9993
2 52414  97.4455 351.4895 0009534 182.0409 178.0785 15.14563769 23538
Source of the keplerian elements: AFSPC